Vertical_Velocity
-3 -2 -2 -6 -4 -6 -1 -1 -4 -1 -1 3 3 -5 2 5 6 4 -1 -2 10 10 5 -6 3 -0 17 6 -0 -2 6 2 -0 3 -3 0 4 1 9 4 -2 0 4 -41
-4 -3 -3 -3 -3 -4 -5 -3 -7 -5 -1 -5 2 -2 -3 13 9 -6 1 8 5 0 3 6 4 4 -2 -1 1 -6 -8 3 -2 3 4 4 1 -2 -9 5 6 -2 0 -31
-2 -3 0 -5 -2 -1 8 2 -5 0 4 4 -2 1 -4 -0 -2 2 -5 11 12 6 -3 3 -4 -8 -8 -6 -5 13 7 1 -4 -3 -9 18 6 1 1 16 6 -10 -26 -43
-2 1 -3 -0 -2 1 2 6 1 1 -3 3 3 8 16 9 0 2 -3 -9 -2 2 6 0 -7 6 13 -2 10 -1 -0 -5 -0 -5 -6 1 -2 3 17 -1 -19 6 -54 14
1 1 -1 -1 1 -3 -3 -1 -2 7 6 2 1 -1 -8 5 -5 17 -3 7 3 16 4 2 7 9 10 14 -7 -9 -4 -14 0 -10 -3 -0 -6 -3 4 3 -4 2 2 -42
2 2 -1 2 1 -2 -1 4 1 6 19 4 1 1 6 -4 4 -7 12 13 3 1 11 9 2 11 -0 3 11 7 9 -1 7 -21 15 1 -12 -10 4 3 -1 9 -2 -10
-1 1 0 1 2 1 -0 3 5 -1 -10 -1 16 9 8 1 -0 0 -7 -0 11 2 5 -4 0 -6 -5 -0 -3 9 1 10 12 -11 2 1 -8 -3 6 6 8 7 -3 -1
-0 3 4 6 3 4 -4 -0 7 7 -4 -1 -10 4 1 6 4 3 -1 -2 2 2 -10 -8 -7 -9 -3 -7 -1 7 8 7 2 -1 1 -21 -32 1 1 1 -10 -3 -3 -2
-3 0 -0 3 -0 8 2 3 1 4 4 -15 2 3 2 -8 -4 -10 2 0 -1 -1 -1 0 3 -6 -6 5 -0 5 -2 2 10 6 2 -1 6 -0 -2 -4 -15 -1 -6 -1
2 -2 -1 -2 6 2 -1 2 -0 2 2 -6 3 -1 14 22 3 -5 -2 0 -11 3 1 2 -2 -7 9 -3 4 -4 -2 -0 -6 8 1 -15 -4 4 0 -0 -7 -1 -1 1
-4 -2 3 2 13 4 2 3 4 5 -0 -15 2 14 -3 -0 9 4 11 -1 -6 4 -3 -3 4 0 3 -2 1 1 3 6 -2 5 3 -12 3 1 3 7 3 3 1 0
3 -2 -2 7 1 5 10 -3 5 8 5 -17 4 12 -1 0 16 0 -6 -2 7 23 1 2 0 -3 -1 6 -20 16 -0 4 5 -4 -10 3 -10 0 2 5 1 2 4 -1
3 -1 1 2 4 3 3 1 3 3 -4 -9 -2 3 7 5 4 8 -6 5 2 -4 6 1 2 1 12 3 -12 10 -4 -1 -4 11 7 6 4 3 5 3 0 -1 4 4
3 2 -0 -1 3 2 3 -1 7 5 2 -12 -13 -1 -3 -1 6 9 -3 -5 0 7 12 10 7 12 7 1 2 -6 5 5 2 -2 5 1 1 -1 -0 -0 -1 0 3 3
2 -1 -1 2 4 2 -1 1 4 6 0 -12 -7 9 -7 8 2 3 1 5 9 3 2 5 -2 2 16 2 5 -13 14 6 3 -4 3 2 4 3 -1 -2 -2 1 1 3
1 0 1 2 -0 2 -5 -5 6 1 -2 18 10 -13 -11 -6 -4 -2 1 2 2 4 4 1 -4 0 14 7 1 1 1 2 4 -2 5 3 3 2 -1 1 1 2 1 1
-2 -1 2 2 2 2 0 -4 4 3 4 -1 -5 -4 -6 -0 -1 1 -2 2 2 4 3 -3 3 7 18 1 -1 7 1 3 -1 4 1 2 2 1 0 -1 1 0 0 1
-2 1 -0 0 0 1 1 2 -1 -1 2 7 1 -7 3 5 -0 -4 -1 -2 0 -1 3 1 -0 0 4 -5 -1 1 2 1 1 0 -1 -0 -0 0 -0 0 -1 -1 -1 0
-1 1 -0 -3 2 -0 2 -1 1 3 11 2 -0 1 -4 -3 0 2 -3 -0 -0 1 -1 -1 -0 -0 -4 4 6 3 0 -0 -1 1 -1 -1 -1 -2 -0 -1 -1 -1 -0 1
-0 1 -0 -4 3 1 -1 -5 -3 0 1 0 -6 3 -1 3 3 -4 -0 1 -0 -1 -1 -0 -2 -2 3 4 5 -4 -1 1 -1 2 -0 -1 -1 -1 -1 -1 -0 1 0 -1
1 -2 -0 1 1 -1 1 0 -1 -1 0 -1 -1 2 1 1 1 2 1 -0 1 -1 -1 -0 -2 -1 1 0 0 -1 -0 -1 -2 1 -1 -1 -1 0 1 -0 -1 -1 -0 -0
1 -2 -4 1 0 1 1 -0 -1 0 -0 -3 -1 -0 0 -1 -0 -1 1 0 -0 -1 -0 -1 -2 2 1 -1 -0 -0 -1 -1 -1 -0 -0 -1 -1 -2 -2 0 -0 -1 0 1
-1 -1 -2 1 1 -0 -0 -1 -2 -0 -1 0 -1 0 1 -1 -0 0 0 -0 -1 0 -1 -2 -1 1 1 0 -1 -1 -0 0 -0 -1 -2 -1 1 1 -1 -1 -0 -0 -0 -1
0 -1 -1 -0 0 0 -0 -0 -0 -2 -1 0 1 2 1 0 -0 -0 0 -0 -0 -1 -1 0 0 0 0 0 -1 -1 -0 -1 -1 -2 -0 1 -1 -1 -0 -0 -1 -1 -1 -1
-1 -1 -3 -3 1 2 1 2 2 1 1 1 -2 -1 3 1 1 -0 0 -0 -2 -2 0 0 -0 -0 -0 -0 -0 -0 -1 -2 -1 0 -0 -1 0 0 -1 -1 -1 -1 -2 -2
-2 -7 -6 1 2 2 2 2 2 3 1 -1 -0 -1 0 -0 0 -1 -1 -1 -2 -1 1 0 -0 -0 0 -0 -0 -0 -1 -1 0 -1 -1 1 0 -1 -1 -2 -2 -2 -1 -1
-6 -8 -1 -1 -0 2 1 1 3 1 -1 0 -0 -1 -1 1 -0 -2 -2 -1 -0 -1 -0 -0 0 -0 -1 -0 0 0 -1 -1 -0 -1 0 1 0 -1 -2 -2 -2 -1 -1 -1
Height
3091 3087 3082 3077 3072 3067 3064 3059 3056 3057 3055 3054 3050 3046 3047 3046 3041 3040 3039 3036 3034 3028 3026 3022 3022 3018 3017 3015 3014 3012 3011 3004 3002 3000 2999 3000 2997 2999 3000 3001 2996 2993 2989 2959
3084 3080 3076 3072 3067 3062 3056 3052 3047 3049 3048 3043 3042 3040 3039 3041 3036 3035 3030 3029 3028 3025 3023 3020 3014 3013 3014 3011 3010 3007 3006 3001 2999 2995 2995 2993 2993 2993 2994 2995 2993 2986 2986 2960
3077 3072 3068 3064 3060 3056 3052 3046 3040 3039 3036 3035 3034 3034 3030 3032 3029 3029 3028 3024 3020 3019 3017 3016 3010 3009 3006 3007 3007 3002 3000 2996 2997 2994 2993 2995 2990 2987 2987 2988 2984 2978 2965 2960
3070 3065 3060 3056 3051 3047 3044 3040 3033 3033 3031 3031 3030 3030 3026 3025 3026 3023 3021 3018 3018 3016 3008 3008 3006 3002 3000 2998 2997 2994 2995 2988 2988 2985 2983 2982 2978 2974 2977 2972 2966 2968 2949 2954
3064 3059 3052 3048 3042 3037 3035 3034 3032 3027 3021 3023 3021 3022 3020 3018 3021 3021 3015 3010 3012 3009 3005 3003 2998 2999 2993 2992 2990 2988 2987 2980 2980 2973 2973 2970 2964 2962 2959 2956 2952 2950 2943 2938
3055 3049 3043 3037 3032 3028 3024 3024 3025 3021 3015 3016 3016 3015 3011 3010 3013 3010 3009 3005 3001 2999 2997 2995 2992 2989 2988 2986 2983 2981 2980 2977 2975 2964 2969 2964 2957 2949 2947 2944 2942 2942 2939 2932
3044 3039 3034 3028 3025 3023 3019 3018 3015 3013 3004 3010 3011 3007 3006 3003 3004 3000 2998 2998 2993 2991 2989 2986 2983 2979 2977 2975 2973 2973 2970 2970 2969 2963 2963 2959 2946 2944 2941 2938 2936 2935 2932 2930
3033 3028 3023 3020 3018 3017 3014 3014 3011 3006 2998 3001 3001 3001 2999 2997 2996 2994 2991 2991 2987 2983 2983 2979 2973 2971 2969 2966 2966 2964 2963 2965 2964 2962 2958 2946 2938 2936 2935 2933 2932 2929 2925 2923
3022 3018 3015 3013 3012 3012 3008 3007 3006 3002 2994 2992 2994 2992 2992 2988 2986 2985 2984 2983 2983 2980 2978 2976 2971 2970 2969 2963 2960 2959 2958 2959 2962 2958 2956 2947 2932 2931 2930 2929 2925 2922 2921 2917
3013 3010 3009 3008 3006 3005 3002 3001 3001 2996 2989 2986 2986 2985 2986 2984 2983 2980 2979 2977 2975 2974 2971 2968 2964 2961 2961 2958 2956 2954 2954 2953 2951 2950 2948 2936 2928 2928 2927 2927 2925 2919 2917 2915
3004 3003 3004 3003 3000 2999 2998 2995 2995 2991 2983 2978 2980 2979 2977 2977 2977 2974 2975 2972 2968 2965 2966 2964 2960 2957 2956 2952 2950 2948 2948 2946 2941 2941 2941 2934 2926 2925 2925 2922 2917 2914 2911 2910
2996 2995 2996 2995 2994 2993 2992 2989 2988 2985 2978 2973 2974 2972 2972 2973 2972 2968 2966 2966 2965 2963 2960 2958 2955 2952 2950 2947 2941 2941 2941 2938 2936 2934 2927 2923 2921 2918 2916 2914 2911 2908 2906 2904
2989 2987 2988 2988 2986 2986 2985 2982 2981 2976 2969 2964 2961 2962 2965 2965 2963 2962 2959 2958 2956 2953 2953 2950 2945 2942 2940 2936 2933 2933 2931 2930 2927 2925 2917 2918 2914 2911 2909 2906 2903 2902 2901 2900
2983 2981 2981 2980 2979 2978 2977 2975 2974 2971 2965 2957 2954 2955 2955 2955 2956 2955 2953 2949 2947 2945 2944 2941 2937 2935 2931 2927 2927 2926 2925 2921 2917 2911 2910 2909 2907 2905 2903 2901 2898 2897 2896 2895
2977 2975 2975 2974 2973 2971 2969 2967 2967 2964 2963 2954 2950 2950 2948 2948 2948 2946 2944 2941 2938 2935 2933 2930 2927 2924 2922 2917 2915 2911 2912 2911 2909 2904 2903 2902 2900 2899 2897 2895 2893 2892 2891 2892
2971 2969 2969 2968 2967 2965 2962 2960 2960 2957 2956 2953 2948 2943 2941 2940 2939 2937 2935 2932 2930 2927 2924 2921 2918 2916 2916 2910 2906 2905 2904 2901 2900 2898 2896 2895 2894 2893 2891 2890 2889 2889 2888 2888
2965 2965 2964 2963 2962 2960 2958 2957 2956 2956 2955 2952 2946 2939 2934 2934 2932 2930 2927 2924 2922 2920 2916 2911 2910 2908 2908 2901 2898 2897 2895 2893 2890 2888 2886 2886 2886 2886 2886 2886 2886 2886 2885 2885
2960 2959 2957 2955 2954 2953 2952 2951 2951 2950 2950 2948 2943 2936 2932 2930 2926 2923 2920 2917 2913 2910 2908 2906 2903 2902 2899 2894 2891 2890 2890 2888 2886 2884 2882 2881 2883 2884 2884 2885 2885 2884 2884 2884
2955 2953 2951 2950 2949 2948 2948 2947 2946 2944 2946 2942 2938 2933 2930 2925 2923 2919 2914 2910 2907 2905 2904 2902 2901 2897 2895 2892 2888 2888 2887 2887 2886 2884 2882 2882 2883 2883 2884 2884 2883 2883 2882 2882
2949 2948 2948 2945 2944 2943 2944 2941 2939 2936 2935 2934 2933 2931 2928 2926 2920 2914 2912 2907 2906 2903 2903 2900 2897 2895 2893 2888 2883 2882 2886 2887 2886 2885 2884 2883 2883 2884 2884 2883 2882 2881 2881 2879
2944 2943 2943 2942 2940 2939 2938 2936 2935 2934 2933 2932 2931 2928 2925 2920 2917 2912 2911 2907 2905 2903 2903 2901 2897 2894 2892 2890 2888 2888 2887 2888 2887 2887 2886 2885 2885 2884 2883 2882 2881 2880 2878 2877
2940 2939 2937 2937 2936 2934 2935 2933 2933 2932 2931 2930 2927 2924 2921 2917 2912 2909 2908 2906 2905 2903 2902 2900 2896 2895 2892 2891 2891 2890 2889 2889 2888 2887 2887 2886 2885 2884 2883 2881 2880 2878 2876 2875
2935 2935 2934 2933 2933 2931 2929 2930 2930 2930 2929 2927 2924 2921 2918 2913 2910 2908 2907 2905 2904 2902 2900 2898 2897 2895 2893 2892 2892 2892 2891 2890 2889 2888 2887 2886 2885 2884 2882 2881 2879 2877 2875 2873
2931 2931 2930 2929 2927 2926 2926 2927 2927 2927 2925 2923 2920 2917 2915 2911 2908 2907 2905 2904 2902 2900 2898 2897 2896 2895 2894 2894 2893 2892 2892 2891 2890 2889 2887 2886 2885 2883 2882 2880 2878 2876 2873 2871
2928 2927 2925 2922 2923 2923 2924 2925 2924 2923 2921 2919 2917 2914 2911 2908 2906 2905 2904 2903 2900 2898 2897 2896 2895 2894 2894 2894 2893 2893 2892 2891 2890 2888 2887 2886 2885 2883 2882 2880 2877 2874 2872 2869
2922 2921 2919 2919 2920 2921 2921 2921 2920 2920 2918 2916 2914 2910 2907 2905 2904 2903 2901 2900 2897 2897 2896 2894 2893 2893 2894 2894 2893 2893 2892 2891 2889 2888 2887 2885 2884 2883 2881 2879 2876 2873 2870 2867
2914 2912 2915 2916 2916 2917 2917 2916 2915 2914 2914 2912 2911 2909 2906 2904 2901 2899 2897 2896 2896 2895 2894 2892 2891 2892 2892 2892 2892 2892 2891 2890 2889 2888 2886 2884 2883 2881 2879 2877 2874 2871 2868 2865